• In France
  • List of Countries
  • For 7 days
  • Water Temperature
  • Satellite Maps
  • Weather Map
  • Weather Widgets
  • user-avatar
    Login

    Hourly Weather Krasava

    Today, 23 September, Sunday

    Time Temperature Precipitation Wind Pressure Humidity
    00:00 +17°C° 0 mm 5 mps 748 mmHg 64%
    01:00 +17°C° 0 mm 5 mps 747 mmHg 65%
    02:00 +16°C° 0 mm 5 mps 747 mmHg 66%
    03:00 +17°C° 0 mm 4 mps 746 mmHg 71%
    04:00 +16°C° 0 mm 5 mps 746 mmHg 71%
    05:00 +16°C° 0 mm 5 mps 745 mmHg 71%
    06:00 +16°C° 0 mm 6 mps 745 mmHg 71%
    07:00 +17°C° 0 mm 7 mps 744 mmHg 67%
    08:00 +18°C° 0 mm 7 mps 744 mmHg 63%
    09:00 +20°C° 0 mm 8 mps 743 mmHg 59%
    10:00 +21°C° 0 mm 8 mps 744 mmHg 58%
    11:00 +21°C° 0 mm 8 mps 744 mmHg 56%
    12:00 +22°C° 0 mm 8 mps 744 mmHg 54%
    13:00 +18°C° 0.3 mm 7 mps 744 mmHg 62%
    14:00 +16°C° 0.3 mm 6 mps 744 mmHg 69%
    15:00 +13°C° 0 mm 5 mps 744 mmHg 76%
    16:00 +12°C° 0.6 mm 5 mps 744 mmHg 79%
    17:00 +11°C° 0.6 mm 4 mps 745 mmHg 82%
    18:00 +10°C° 0.6 mm 4 mps 745 mmHg 85%
    19:00 +10°C° 0.5 mm 4 mps 745 mmHg 85%
    20:00 +10°C° 0.5 mm 4 mps 745 mmHg 85%
    21:00 +10°C° 0.5 mm 4 mps 745 mmHg 85%
    22:00 +10°C° 0 mm 3 mps 745 mmHg 87%
    23:00 +9°C° 0 mm 3 mps 745 mmHg 88%

    Tomorrow, 24 September, Monday

    Time Temperature Precipitation Wind Pressure Humidity
    00:00 +9°C° 0 mm 3 mps 746 mmHg 89%
    01:00 +9°C° 0 mm 3 mps 746 mmHg 89%
    02:00 +8°C° 0 mm 3 mps 746 mmHg 90%
    03:00 +8°C° 0 mm 3 mps 746 mmHg 91%
    04:00 +8°C° 0 mm 3 mps 746 mmHg 92%
    05:00 +7°C° 0 mm 3 mps 746 mmHg 93%
    06:00 +7°C° 0 mm 3 mps 746 mmHg 93%
    07:00 +8°C° 0 mm 3 mps 746 mmHg 88%
    08:00 +10°C° 0 mm 3 mps 746 mmHg 83%
    09:00 +11°C° 0 mm 3 mps 747 mmHg 77%
    10:00 +12°C° 0 mm 4 mps 746 mmHg 70%
    11:00 +14°C° 0 mm 4 mps 746 mmHg 63%
    12:00 +15°C° 0 mm 5 mps 746 mmHg 56%
    13:00 +15°C° 0 mm 5 mps 746 mmHg 56%
    14:00 +15°C° 0 mm 6 mps 745 mmHg 55%
    15:00 +15°C° 0 mm 6 mps 745 mmHg 55%
    16:00 +13°C° 0.5 mm 6 mps 744 mmHg 62%
    17:00 +12°C° 0.5 mm 5 mps 744 mmHg 69%
    18:00 +10°C° 0.5 mm 5 mps 743 mmHg 75%
    19:00 +10°C° 1.2 mm 6 mps 743 mmHg 77%
    20:00 +10°C° 1.2 mm 7 mps 742 mmHg 79%
    21:00 +10°C° 1.2 mm 8 mps 741 mmHg 81%
    22:00 +10°C° 0.6 mm 8 mps 740 mmHg 81%
    23:00 +10°C° 0.6 mm 9 mps 739 mmHg 80%

    Day after tomorrow, 25 September, Tuesday

    Time Temperature Precipitation Wind Pressure Humidity
    00:00 +10°C° 0.6 mm 9 mps 738 mmHg 80%
    01:00 +10°C° 0.4 mm 9 mps 738 mmHg 81%
    02:00 +10°C° 0.4 mm 8 mps 737 mmHg 82%
    03:00 +10°C° 0.4 mm 8 mps 737 mmHg 83%
    04:00 +10°C° 0.2 mm 7 mps 736 mmHg 83%
    05:00 +9°C° 0.2 mm 7 mps 736 mmHg 83%
    06:00 +8°C° 0.2 mm 6 mps 736 mmHg 82%
    07:00 +8°C° 0 mm 7 mps 736 mmHg 80%
    08:00 +8°C° 0 mm 7 mps 736 mmHg 78%
    09:00 +7°C° 0 mm 8 mps 737 mmHg 76%
    10:00 +9°C° 0 mm 8 mps 737 mmHg 75%
    11:00 +9°C° 0 mm 8 mps 737 mmHg 74%
    12:00 +9°C° 0 mm 8 mps 738 mmHg 72%
    13:00 +9°C° 0.1 mm 8 mps 738 mmHg 72%
    14:00 +9°C° 0.1 mm 8 mps 739 mmHg 73%
    15:00 +9°C° 0.1 mm 8 mps 739 mmHg 73%
    16:00 +7°C° 0.1 mm 8 mps 740 mmHg 74%
    17:00 +8°C° 0.1 mm 7 mps 740 mmHg 75%
    18:00 +6°C° 0.1 mm 7 mps 741 mmHg 76%
    19:00 +6°C° 0.3 mm 7 mps 742 mmHg 78%
    20:00 +6°C° 0.3 mm 7 mps 743 mmHg 79%
    21:00 +6°C° 0.3 mm 7 mps 743 mmHg 80%
    22:00 +5°C° 0.1 mm 7 mps 744 mmHg 80%
    23:00 +5°C° 0.1 mm 7 mps 745 mmHg 80%

    26 September, Wednesday

    Time Temperature Precipitation Wind Pressure Humidity
    00:00 +5°C° 0.1 mm 6 mps 745 mmHg 80%
    01:00 +5°C° 0 mm 6 mps 746 mmHg 81%
    02:00 +4°C° 0 mm 6 mps 747 mmHg 81%
    03:00 +5°C° 0 mm 5 mps 748 mmHg 82%
    04:00 +3°C° 0 mm 5 mps 748 mmHg 83%
    05:00 +3°C° 0 mm 5 mps 749 mmHg 84%
    06:00 +2°C° 0 mm 5 mps 750 mmHg 85%
    07:00 +3°C° 0 mm 5 mps 750 mmHg 80%
    08:00 +3°C° 0 mm 5 mps 751 mmHg 75%
    09:00 +4°C° 0 mm 6 mps 752 mmHg 69%
    10:00 +6°C° 0 mm 5 mps 752 mmHg 64%
    11:00 +7°C° 0 mm 5 mps 753 mmHg 59%
    12:00 +7°C° 0 mm 5 mps 753 mmHg 55%
    13:00 +8°C° 0 mm 5 mps 753 mmHg 52%
    14:00 +8°C° 0 mm 5 mps 753 mmHg 49%
    15:00 +10°C° 0 mm 4 mps 753 mmHg 46%
    16:00 +8°C° 0 mm 4 mps 754 mmHg 50%
    17:00 +8°C° 0 mm 3 mps 754 mmHg 53%
    18:00 +7°C° 0 mm 2 mps 754 mmHg 57%
    19:00 +5°C° 0 mm 3 mps 754 mmHg 60%
    20:00 +4°C° 0 mm 3 mps 754 mmHg 62%
    21:00 +4°C° 0 mm 3 mps 754 mmHg 65%
    22:00 +4°C° 0 mm 4 mps 753 mmHg 65%
    23:00 +4°C° 0 mm 4 mps 753 mmHg 65%

    27 September, Thursday

    Time Temperature Precipitation Wind Pressure Humidity
    00:00 +3°C° 0 mm 5 mps 752 mmHg 66%
    01:00 +3°C° 0 mm 5 mps 752 mmHg 66%
    02:00 +3°C° 0 mm 5 mps 751 mmHg 67%
    03:00 +3°C° 0 mm 6 mps 751 mmHg 68%
    04:00 +3°C° 0.1 mm 6 mps 750 mmHg 68%
    05:00 +3°C° 0.1 mm 7 mps 749 mmHg 69%
    06:00 +4°C° 0.1 mm 7 mps 749 mmHg 69%
    07:00 +4°C° 0.7 mm 8 mps 748 mmHg 71%
    08:00 +4°C° 0.7 mm 8 mps 747 mmHg 72%
    09:00 +3°C° 0.7 mm 9 mps 746 mmHg 74%
    10:00 +3°C° 1.1 mm 9 mps 746 mmHg 76%
    11:00 +3°C° 1.1 mm 9 mps 745 mmHg 78%
    12:00 +5°C° 1.1 mm 9 mps 745 mmHg 80%
    13:00 +5°C° 1 mm 9 mps 745 mmHg 82%
    14:00 +5°C° 1 mm 8 mps 744 mmHg 83%
    15:00 +5°C° 1 mm 8 mps 744 mmHg 84%
    16:00 +6°C° 0.1 mm 7 mps 744 mmHg 85%
    17:00 +7°C° 0.1 mm 6 mps 744 mmHg 85%
    18:00 +7°C° 0.1 mm 6 mps 744 mmHg 86%
    19:00 +7°C° 0 mm 6 mps 745 mmHg 87%
    20:00 +7°C° 0 mm 5 mps 745 mmHg 87%
    21:00 +8°C° 0 mm 5 mps 745 mmHg 88%
    22:00 +7°C° 0 mm 5 mps 745 mmHg 89%
    23:00 +7°C° 0 mm 5 mps 745 mmHg 91%

    28 September, Friday

    Time Temperature Precipitation Wind Pressure Humidity
    00:00 +7°C° 0 mm 4 mps 746 mmHg 93%
    01:00 +7°C° 0 mm 4 mps 746 mmHg 93%
    02:00 +6°C° 0 mm 4 mps 746 mmHg 94%
    03:00 +7°C° 0 mm 3 mps 746 mmHg 95%
    04:00 +7°C° 0 mm 3 mps 746 mmHg 95%
    05:00 +7°C° 0 mm 3 mps 746 mmHg 96%
    06:00 +5°C° 0 mm 3 mps 746 mmHg 96%
    07:00 +7°C° 0 mm 5 mps 746 mmHg 93%
    08:00 +8°C° 0 mm 6 mps 745 mmHg 90%
    09:00 +9°C° 0 mm 7 mps 745 mmHg 87%
    10:00 +10°C° 0 mm 8 mps 744 mmHg 83%
    11:00 +11°C° 0 mm 9 mps 743 mmHg 80%
    12:00 +12°C° 0 mm 10 mps 743 mmHg 77%
    13:00 +13°C° 0 mm 9 mps 742 mmHg 77%
    14:00 +13°C° 0 mm 9 mps 742 mmHg 78%
    15:00 +13°C° 0 mm 9 mps 741 mmHg 78%
    16:00 +13°C° 0.4 mm 9 mps 741 mmHg 78%
    17:00 +13°C° 0.4 mm 9 mps 741 mmHg 78%
    18:00 +12°C° 0.4 mm 9 mps 741 mmHg 78%
    19:00 +10°C° 0.1 mm 8 mps 743 mmHg 77%
    20:00 +8°C° 0.1 mm 7 mps 744 mmHg 76%
    21:00 +5°C° 0.1 mm 6 mps 745 mmHg 76%
    22:00 +6°C° 0 mm 5 mps 746 mmHg 78%
    23:00 +5°C° 0 mm 4 mps 747 mmHg 81%
    Show more